CW9464 Weather Reports


Display with metric or nautical units.
time (UTC)temp
F
wind
direction
speed
MPH
gust
MPH
rain 1hr
in
rain 24hr
in
rain mn
in
humidity
%
barometer
mb
20181215070516 48 337 7.0 11.0 0.00 0.00 0.00 40 1020.0
20181215065517 48 337 6.0 9.0 0.00 0.00 0.00 41 1019.9
20181215064517 49 337 5.0 10.0 0.00 0.00 0.00 41 1019.9
20181215063517 49 337 6.0 9.0 0.00 0.00 0.00 40 1019.9
20181215062517 49 337 7.0 11.0 0.00 0.00 0.00 41 1020.1
20181215061516 49 315 5.0 6.0 0.00 0.00 0.00 42 1019.9
20181215060517 49 315 4.0 6.0 0.00 0.00 0.00 42 1019.9
20181215055516 49 315 2.0 3.0 0.00 0.00 0.00 41 1020.1
20181215054516 49 337 4.0 6.0 0.00 0.00 0.00 41 1020.0
20181215053516 49 0 5.0 8.0 0.00 0.00 0.00 41 1019.8
20181215052517 49 0 5.0 8.0 0.00 0.00 0.00 41 1020.1
20181215051516 49 0 5.0 7.0 0.00 0.00 0.00 41 1020.1
20181215050516 49 337 5.0 8.0 0.00 0.00 0.00 42 1020.3
20181215045517 50 337 4.0 6.0 0.00 0.00 0.00 41 1020.2
20181215044516 50 337 3.0 4.0 0.00 0.00 0.00 40 1020.0
20181215043517 50 337 5.0 11.0 0.00 0.00 0.00 39 1019.8
20181215042517 51 337 5.0 6.0 0.00 0.00 0.00 39 1019.7
20181215041517 52 337 4.0 6.0 0.00 0.00 0.00 37 1019.7
20181215040517 52 0 4.0 7.0 0.00 0.00 0.00 37 1019.4
20181215035518 52 337 4.0 5.0 0.00 0.00 0.00 37 1019.5
20181215034520 53 337 3.0 4.0 0.00 0.00 0.00 36 1019.5
20181215033517 53 337 5.0 8.0 0.00 0.00 0.00 36 1019.5
20181215032517 54 337 4.0 6.0 0.00 0.00 0.00 37 1019.3
20181215031517 54 337 3.0 5.0 0.00 0.00 0.00 36 1019.2
20181215030516 55 337 2.0 4.0 0.00 0.00 0.00 35 1019.2
20181215025517 55 337 2.0 4.0 0.00 0.00 0.00 36 1019.6
20181215024516 55 315 3.0 4.0 0.00 0.00 0.00 36 1019.5
20181215023518 56 337 2.0 4.0 0.00 0.00 0.00 38 1019.5
20181215022516 56 337 3.0 5.0 0.00 0.00 0.00 39 1019.3
20181215021516 57 337 1.0 2.0 0.00 0.00 0.00 41 1019.2
20181215020517 57 337 2.0 3.0 0.00 0.00 0.00 42 1019.4
20181215015516 57 0.0 1.0 0.00 0.00 0.00 40 1019.4
20181215014518 58 329 3.0 0.0 0.00 0.00 0.00 41 1019.3
20181215013522 58 337 2.0 3.0 0.00 0.00 0.00 43 1019.3
20181215012518 58 337 2.0 4.0 0.00 0.00 0.00 41 1019.2
20181215011517 59 0.0 2.0 0.00 0.00 0.00 42 1019.3
20181215010517 59 0 2.0 3.0 0.00 0.00 0.00 41 1019.1
20181215005516 60 0.0 0.0 0.00 0.00 0.00 45 1018.9
20181215004516 61 0 2.0 4.0 0.00 0.00 0.00 41 1019.0
20181215003516 63 45 3.0 4.0 0.00 0.00 0.00 42 1019.4
20181215002516 64 0.0 0.0 0.00 0.00 0.00 40 1019.6
20181215001516 65 0.0 0.0 0.00 0.00 0.00 37 1019.5
20181215000516 67 22 3.0 3.0 0.00 0.00 0.00 37 1019.3
20181214235516 68 0.0 0.0 0.00 0.00 0.00 35 1019.4
20181214234516 69 0.0 0.0 0.00 0.00 0.00 34 1019.5
20181214233516 70 0.0 0.0 0.00 0.00 0.00 33 1019.6
20181214232516 71 0.0 0.0 0.00 0.00 0.00 30 1019.8
20181214231526 73 45 1.0 2.0 0.00 0.00 0.00 29 1019.7
20181214230517 73 0.0 0.0 0.00 0.00 0.00 23 1020.0
20181214225517 74 45 1.0 2.0 0.00 0.00 0.00 20 1020.0
20181214224517 74 67 3.0 4.0 0.00 0.00 0.00 18 1020.2
20181214223516 74 45 1.0 3.0 0.00 0.00 0.00 15 1020.2
20181214222516 75 45 3.0 4.0 0.00 0.00 0.00 14 1020.3
20181214221517 74 45 3.0 5.0 0.00 0.00 0.00 13 1020.5
20181214220519 75 67 4.0 8.0 0.00 0.00 0.00 13 1020.6
20181214215517 74 67 3.0 4.0 0.00 0.00 0.00 14 1020.8
20181214214521 74 67 3.0 6.0 0.00 0.00 0.00 11 1020.6
20181214213516 75 67 5.0 9.0 0.00 0.00 0.00 10 1020.7
20181214212517 75 67 6.0 9.0 0.00 0.00 0.00 12 1020.9
20181214211517 76 0.0 0.0 0.00 0.00 0.00 11 1021.1
20181214210517 76 0.0 0.0 0.00 0.00 0.00 9 1021.2
20181214205516 76 0.0 0.0 0.00 0.00 0.00 10 1021.3
20181214204517 76 0.0 0.0 0.00 0.00 0.00 11 1021.5
20181214203519 77 0.0 0.0 0.00 0.00 0.00 10 1021.6
20181214202517 77 0.0 0.0 0.00 0.00 0.00 11 1021.8
20181214201516 75 0.0 0.0 0.00 0.00 0.00 10 1021.8
20181214200516 74 0.0 0.0 0.00 0.00 0.00 12 1022.2
20181214195516 74 0.0 0.0 0.00 0.00 0.00 10 1022.5
20181214194516 74 0.0 0.0 0.00 0.00 0.00 10 1022.8
20181214193516 73 0.0 0.0 0.00 0.00 0.00 11 1022.9
20181214192516 72 0.0 0.0 0.00 0.00 0.00 22 1022.8
20181214191516 71 0.0 0.0 0.00 0.00 0.00 22 1023.1
20181214190516 71 0.0 0.0 0.00 0.00 0.00 19 1023.3
20181214185516 70 0.0 0.0 0.00 0.00 0.00 19 1023.5
20181214184518 69 0.0 0.0 0.00 0.00 0.00 19 1023.6
20181214183523 68 0.0 0.0 0.00 0.00 0.00 21 1024.1
20181214182518 67 0.0 0.0 0.00 0.00 0.00 20 1024.2
20181214181516 67 0.0 0.0 0.00 0.00 0.00 20 1024.3
20181214180520 66 0.0 0.0 0.00 0.00 0.00 19 1024.4
20181214175516 66 0.0 0.0 0.00 0.00 0.00 20 1024.6
20181214174516 65 0.0 0.0 0.00 0.00 0.00 20 1024.7
20181214173516 64 0.0 0.0 0.00 0.00 0.00 20 1024.8
20181214172521 64 0.0 0.0 0.00 0.00 0.00 21 1024.9
20181214171517 63 0.0 0.0 0.00 0.00 0.00 22 1025.2
20181214170522 62 0.0 0.0 0.00 0.00 0.00 25 1025.2
20181214165516 60 0.0 0.0 0.00 0.00 0.00 26 1025.2
20181214164527 58 0.0 0.0 0.00 0.00 0.00 28 1025.3
20181214163516 56 0.0 0.0 0.00 0.00 0.00 29 1025.2
20181214162516 55 0.0 0.0 0.00 0.00 0.00 30 1025.1
20181214161516 54 0.0 0.0 0.00 0.00 0.00 30 1024.9
20181214160522 53 0.0 0.0 0.00 0.00 0.00 31 1024.8
20181214155516 51 0.0 0.0 0.00 0.00 0.00 34 1024.7
20181214154516 48 0.0 0.0 0.00 0.00 0.00 37 1024.6
20181214153516 45 0.0 0.0 0.00 0.00 0.00 40 1024.7
20181214152516 43 0.0 0.0 0.00 0.00 0.00 43 1024.3
20181214151516 42 0.0 0.0 0.00 0.00 0.00 44 1024.4
20181214150516 42 0.0 0.0 0.00 0.00 0.00 44 1024.1
20181214145516 42 0.0 0.0 0.00 0.00 0.00 44 1024.2
20181214144518 41 0.0 0.0 0.00 0.00 0.00 44 1024.0
20181214143516 41 0.0 0.0 0.00 0.00 0.00 44 1024.0
20181214142516 41 0.0 0.0 0.00 0.00 0.00 44 1023.8
20181214141516 41 0.0 0.0 0.00 0.00 0.00 44 1023.7
20181214140516 41 0.0 0.0 0.00 0.00 0.00 45 1023.7
20181214135516 40 0.0 0.0 0.00 0.00 0.00 46 1023.8
20181214134515 40 0.0 0.0 0.00 0.00 0.00 46 1023.7
20181214133516 40 0.0 0.0 0.00 0.00 0.00 47 1023.7
20181214132516 40 0.0 0.0 0.00 0.00 0.00 47 1023.9
20181214131516 40 0.0 0.0 0.00 0.00 0.00 46 1023.9
20181214130516 41 0.0 0.0 0.00 0.00 0.00 46 1023.7
20181214125516 41 0.0 0.0 0.00 0.00 0.00 46 1023.5
20181214124516 41 0.0 0.0 0.00 0.00 0.00 46 1023.7
20181214123516 41 0.0 0.0 0.00 0.00 0.00 46 1023.6
20181214122516 41 0.0 0.0 0.00 0.00 0.00 46 1023.7
20181214121516 41 0.0 0.0 0.00 0.00 0.00 46 1023.5
20181214120516 41 0.0 0.0 0.00 0.00 0.00 46 1023.4
20181214115516 41 0.0 0.0 0.00 0.00 0.00 46 1023.5
20181214114518 41 0.0 0.0 0.00 0.00 0.00 45 1023.3
20181214113516 41 0.0 0.0 0.00 0.00 0.00 45 1023.3
20181214112516 41 0.0 0.0 0.00 0.00 0.00 45 1023.2
20181214111517 42 0.0 0.0 0.00 0.00 0.00 45 1023.3
20181214110516 42 0.0 0.0 0.00 0.00 0.00 44 1023.2
20181214105516 42 0.0 0.0 0.00 0.00 0.00 44 1023.4
20181214104516 43 0.0 0.0 0.00 0.00 0.00 44 1023.5
20181214103516 43 0.0 0.0 0.00 0.00 0.00 43 1023.4
20181214102516 43 0.0 0.0 0.00 0.00 0.00 44 1023.5
20181214101516 43 0.0 0.0 0.00 0.00 0.00 44 1023.5
20181214100516 44 0.0 0.0 0.00 0.00 0.00 42 1023.5
20181214095516 45 0.0 0.0 0.00 0.00 0.00 42 1023.6
20181214094517 44 0.0 0.0 0.00 0.00 0.00 42 1023.4
20181214093516 45 0.0 0.0 0.00 0.00 0.00 42 1023.5
20181214092516 45 0.0 0.0 0.00 0.00 0.00 42 1023.4
20181214090515 45 329 5.0 0.0 0.00 0.00 0.00 41 1023.5
20181214085516 46 337 7.0 11.0 0.00 0.00 0.00 39 1023.4
20181214084516 47 337 5.0 8.0 0.00 0.00 0.00 38 1023.4
20181214083516 48 337 5.0 8.0 0.00 0.00 0.00 37 1023.2
20181214082516 47 337 8.0 12.0 0.00 0.00 0.00 38 1023.0
20181214081516 47 0 8.0 11.0 0.00 0.00 0.00 39 1023.1
20181214080516 47 337 8.0 11.0 0.00 0.00 0.00 40 1023.3
20181214075517 47 337 5.0 6.0 0.00 0.00 0.00 40 1023.4
20181214074516 47 337 6.0 8.0 0.00 0.00 0.00 39 1023.2
20181214073516 48 337 5.0 8.0 0.00 0.00 0.00 38 1023.2
20181214072516 49 337 5.0 7.0 0.00 0.00 0.00 37 1023.1
20181214071516 50 337 6.0 10.0 0.00 0.00 0.00 37 1022.8